Weather History for NW Arkansas Airport, AR

Change the Weather History Date:

Sunday, January 27, 2013

  Actual Average Record
Temperature  
Mean Temperature 52 °F -  
Max Temperature 59 °F - - ()
Min Temperature 44 °F - - ()
Degree Days  
Heating Degree Days 14    
Growing Degree Days 2 (Base 50)    
Moisture  
Dew Point 48 °F    
Average Humidity 84    
Maximum Humidity 94    
Minimum Humidity 66    
Precipitation  
Precipitation 0.00 in - - ()
Sea Level Pressure  
Sea Level Pressure 30.01 in    
Wind  
Wind Speed 13 mph (South)    
Max Wind Speed 26 mph    
Max Gust Speed 34 mph    
Visibility 10 miles    
Events Rain    
T = Trace of Precipitation, MM = Missing Value Source: NWS Daily Summary

Daily Weather History Graph

Daily Weather History Graph

Search for Another Location

Airport:

Trip Planner

Search our weather history database for the weather conditions in past years. The results will help you decide how hot, cold, wet, or windy it might be!

Date:

Astronomy

Jan. 27, 2013 Rise Set
Actual Time 7:21 AM CST 5:38 PM CST
Civil Twilight 6:54 AM CST 6:06 PM CST
Nautical Twilight 6:23 AM CST 6:37 PM CST
Astronomical Twilight 5:53 AM CST 7:07 PM CST
Moon 6:30 PM CST (1/27) 7:17 AM CST (1/27)
Length of Visible Light 11h 11m
Length of Day
10h 16m
Full, 100% of the Moon is Illuminated
Jan 27
Full
Feb 3
Last Quarter
Feb 10
New
Feb 17
First Quarter
Feb 25
Full

Hourly Weather History & Observations

Time (CST) Temp. Windchill Dew Point Humidity Pressure Visibility Wind Dir Wind Speed Gust Speed Precip Events Conditions
12:39 AM 46.4 °F 41.5 °F 35.6 °F 66% 30.12 in 10.0 mi SSE 10.4 mph - N/A   Overcast
12:53 AM 45.0 °F 40.1 °F 36.0 °F 71% 30.12 in 10.0 mi SSE 9.2 mph - N/A   Overcast
1:16 AM 46.4 °F 42.4 °F 35.6 °F 66% 30.11 in 10.0 mi SSE 8.1 mph - N/A   Overcast
1:53 AM 46.0 °F 42.5 °F 37.0 °F 71% 30.11 in 10.0 mi SE 6.9 mph - 0.00 in   Overcast
2:10 AM 44.6 °F 40.7 °F 35.6 °F 71% 30.11 in 10.0 mi SE 6.9 mph - N/A   Overcast
2:53 AM 46.0 °F 43.1 °F 36.0 °F 68% 30.09 in 10.0 mi ESE 5.8 mph - N/A   Overcast
3:53 AM 46.0 °F 40.6 °F 37.0 °F 71% 30.07 in 10.0 mi SE 11.5 mph - 0.00 in   Overcast
4:53 AM 46.0 °F 41.4 °F 41.0 °F 83% 30.05 in 10.0 mi SE 9.2 mph - 0.00 in   Overcast
6:53 AM 48.0 °F - 45.0 °F 89% 30.05 in 10.0 mi SSE 10.4 mph - N/A   Overcast
7:53 AM 48.9 °F - 46.9 °F 93% 30.06 in 8.0 mi South 16.1 mph - N/A   Overcast
8:07 AM 48.2 °F - 46.4 °F 93% 30.05 in 8.0 mi South 15.0 mph - N/A   Overcast
8:53 AM 50.0 °F - 48.0 °F 93% 30.06 in 8.0 mi South 15.0 mph - N/A   Overcast
9:08 AM 50.0 °F - 48.2 °F 94% 30.05 in 8.0 mi South 16.1 mph - N/A   Overcast
9:53 AM 51.1 °F - 48.9 °F 92% 30.06 in 10.0 mi South 16.1 mph - N/A   Overcast
10:53 AM 52.0 °F - 48.9 °F 89% 30.06 in 10.0 mi South 16.1 mph - N/A   Overcast
11:53 AM 54.0 °F - 51.1 °F 90% 30.02 in 10.0 mi South 18.4 mph - 0.00 in Rain Light Rain
12:53 PM 57.0 °F - 52.0 °F 83% 29.98 in 10.0 mi South 18.4 mph 28.8 mph 0.00 in   Mostly Cloudy
1:05 PM 57.2 °F - 53.6 °F 88% 29.98 in 10.0 mi South 16.1 mph 25.3 mph N/A   Mostly Cloudy
1:18 PM 59.0 °F - 53.6 °F 82% 29.97 in 10.0 mi South 19.6 mph 25.3 mph N/A   Scattered Clouds
1:44 PM 59.0 °F - 53.6 °F 82% 29.97 in 10.0 mi SSW 26.5 mph 33.4 mph N/A   Mostly Cloudy
1:53 PM 59.0 °F - 53.1 °F 81% 29.96 in 10.0 mi SSW 25.3 mph 34.5 mph N/A   Mostly Cloudy
2:53 PM 57.9 °F - 52.0 °F 81% 29.94 in 10.0 mi South 20.7 mph 29.9 mph N/A   Mostly Cloudy
3:53 PM 57.0 °F - 52.0 °F 83% 29.94 in 10.0 mi South 16.1 mph 24.2 mph N/A   Overcast
4:53 PM 57.0 °F - 52.0 °F 83% 29.94 in 10.0 mi South 15.0 mph 21.9 mph N/A   Overcast
5:53 PM 55.9 °F - 53.1 °F 90% 29.94 in 10.0 mi South 16.1 mph - N/A   Overcast
6:53 PM 55.9 °F - 53.1 °F 90% 29.94 in 10.0 mi South 16.1 mph 23.0 mph N/A   Overcast
7:53 PM 55.9 °F - 53.1 °F 90% 29.95 in 10.0 mi South 12.7 mph - N/A   Overcast
8:34 PM 55.4 °F - 53.6 °F 94% 29.95 in 10.0 mi South 12.7 mph - N/A   Mostly Cloudy
8:53 PM 57.0 °F - 54.0 °F 89% 29.94 in 10.0 mi South 12.7 mph - N/A   Overcast
9:53 PM 57.0 °F - 54.0 °F 89% 29.93 in 10.0 mi South 12.7 mph 23.0 mph N/A   Partly Cloudy
10:53 PM 57.0 °F - 55.0 °F 93% 29.93 in 10.0 mi South 16.1 mph - N/A   Scattered Clouds
11:53 PM 57.9 °F - 55.0 °F 90% 29.94 in 10.0 mi South 17.3 mph - N/A   Mostly Cloudy